�������l�o���
Date,Time,MP-1(��Sv/h),MP-2(��Sv/h),MP-3(��Sv/h),MP-4(��Sv/h),MP-5(��Sv/h),MP-6(��Sv/h),MP-7(��Sv/h),MP-8(��Sv/h),����,����(m/s),���J
2023/09/20,00:00,0.539,0.820,0.500,1.010,0.725,0.327,0.576,0.535,��,4.2,�L
2023/09/20,00:10,0.540,0.817,0.498,1.010,0.723,0.327,0.577,0.536,��쐼,2.9,�L
2023/09/20,00:20,0.539,0.816,0.497,1.007,0.722,0.325,0.576,0.535,�쐼,2.0,�L
2023/09/20,00:30,0.539,0.817,0.497,1.010,0.721,0.326,0.578,0.535,��,1.7,�L
2023/09/20,00:40,0.538,0.817,0.499,1.013,0.721,0.327,0.576,0.536,���k��,1.2,�L
2023/09/20,00:50,0.536,0.817,0.499,1.010,0.722,0.326,0.577,0.533,�k�k��,1.1,�L
2023/09/20,01:00,0.537,0.815,0.498,1.010,0.721,0.327,0.577,0.535,�k,1.9,��
2023/09/20,01:10,0.538,0.818,0.497,1.009,0.721,0.326,0.577,0.533,�k��,2.5,��
2023/09/20,01:20,0.536,0.814,0.497,1.009,0.721,0.325,0.575,0.535,�k�k��,1.7,��
2023/09/20,01:30,0.535,0.816,0.498,1.009,0.720,0.325,0.576,0.535,��쓌,3.4,��
2023/09/20,01:40,0.537,0.818,0.499,1.009,0.720,0.324,0.576,0.536,��쓌,5.7,��
2023/09/20,01:50,0.537,0.815,0.496,1.008,0.720,0.326,0.575,0.535,��,4.7,��
2023/09/20,02:00,0.536,0.817,0.496,1.009,0.723,0.324,0.576,0.535,��,3.9,��
2023/09/20,02:10,0.535,0.817,0.495,1.008,0.721,0.324,0.576,0.535,��,4.0,��
2023/09/20,02:20,0.536,0.814,0.496,1.010,0.719,0.324,0.576,0.533,��쓌,3.5,��
2023/09/20,02:30,0.535,0.817,0.496,1.009,0.719,0.324,0.576,0.535,��,3.2,��
2023/09/20,02:40,0.536,0.817,0.495,1.009,0.720,0.325,0.577,0.533,��쐼,2.8,��
2023/09/20,02:50,0.537,0.817,0.497,1.009,0.720,0.324,0.576,0.534,��쐼,3.2,��
2023/09/20,03:00,0.535,0.816,0.496,1.007,0.720,0.323,0.577,0.534,�쐼,2.8,��
2023/09/20,03:10,0.537,0.818,0.496,1.010,0.720,0.324,0.576,0.535,���쐼,3.7,��
2023/09/20,03:20,0.535,0.814,0.498,1.008,0.720,0.324,0.577,0.535,���쐼,3.5,��
2023/09/20,03:30,0.536,0.815,0.495,1.007,0.720,0.325,0.577,0.535,���쐼,3.1,��
2023/09/20,03:40,0.536,0.815,0.496,1.009,0.721,0.324,0.576,0.536,�쐼,3.7,��
2023/09/20,03:50,0.536,0.817,0.497,1.011,0.718,0.325,0.577,0.535,�쐼,4.1,��
2023/09/20,04:00,0.535,0.815,0.497,1.010,0.720,0.324,0.575,0.535,��,4.4,��
2023/09/20,04:10,0.537,0.814,0.497,1.010,0.721,0.322,0.577,0.534,���k��,4.6,��
2023/09/20,04:20,0.537,0.818,0.496,1.010,0.719,0.325,0.578,0.536,�k��,5.5,��
2023/09/20,04:30,0.536,0.816,0.497,1.009,0.721,0.325,0.578,0.537,���k��,5.4,��
2023/09/20,04:40,0.537,0.816,0.496,1.007,0.720,0.324,0.578,0.535,���k��,5.4,��
2023/09/20,04:50,0.537,0.815,0.498,1.010,0.721,0.325,0.578,0.536,�k��,4.2,��
2023/09/20,05:00,0.536,0.815,0.498,1.010,0.720,0.324,0.577,0.534,���k��,3.1,��
2023/09/20,05:10,0.537,0.817,0.496,1.009,0.720,0.326,0.578,0.536,��,2.5,��
2023/09/20,05:20,0.536,0.816,0.496,1.009,0.722,0.324,0.576,0.535,��,2.3,��
2023/09/20,05:30,0.539,0.816,0.496,1.010,0.720,0.324,0.578,0.533,���쐼,0.9,��
2023/09/20,05:40,0.538,0.818,0.495,1.010,0.720,0.325,0.577,0.535,��쐼,0.8,��
2023/09/20,05:50,0.536,0.818,0.497,1.010,0.719,0.327,0.578,0.534,���쐼,0.6,��
2023/09/20,06:00,0.536,0.816,0.497,1.013,0.719,0.327,0.578,0.535,�k�k��,1.2,��
2023/09/20,06:10,0.538,0.816,0.497,1.008,0.720,0.324,0.577,0.536,�k��,3.4,��
2023/09/20,06:20,0.537,0.817,0.497,1.011,0.720,0.324,0.578,0.535,�k��,5.1,��
2023/09/20,06:30,0.537,0.816,0.496,1.010,0.720,0.324,0.578,0.535,�k��,4.5,��
2023/09/20,06:40,0.538,0.814,0.498,1.011,0.722,0.324,0.577,0.536,�k��,4.7,��
2023/09/20,06:50,0.535,0.818,0.498,1.009,0.722,0.324,0.577,0.535,�k��,3.7,��
2023/09/20,07:00,0.536,0.817,0.499,1.010,0.719,0.324,0.575,0.535,�k��,3.9,��
2023/09/20,07:10,0.536,0.817,0.495,1.012,0.721,0.324,0.578,0.535,���k��,4.6,��
2023/09/20,07:20,0.538,0.817,0.497,1.010,0.720,0.324,0.577,0.536,���k��,4.8,��
2023/09/20,07:30,0.538,0.819,0.496,1.010,0.713,0.324,0.577,0.536,�k��,5.0,��
2023/09/20,07:40,0.537,0.818,0.498,1.011,0.714,0.325,0.578,0.536,�k��,3.9,��
2023/09/20,07:50,0.537,0.819,0.498,1.011,0.715,0.324,0.578,0.535,���k��,4.1,��
2023/09/20,08:00,0.538,0.816,0.498,1.011,0.719,0.325,0.579,0.535,���k��,2.6,��
2023/09/20,08:10,0.537,0.818,0.496,1.010,0.721,0.324,0.579,0.535,���k��,4.2,��
2023/09/20,08:20,0.537,0.816,0.497,1.011,0.721,0.326,0.577,0.536,���k��,6.5,��
2023/09/20,08:30,0.539,0.815,0.497,1.009,0.721,0.324,0.579,0.536,�k��,5.4,��
2023/09/20,08:40,0.540,0.816,0.499,1.012,0.721,0.324,0.579,0.536,�k��,5.2,��
2023/09/20,08:50,0.537,0.816,0.496,1.010,0.721,0.324,0.579,0.537,���k��,4.3,��
2023/09/20,09:00,0.538,0.815,0.498,1.013,0.722,0.324,0.577,0.536,���k��,3.9,��
2023/09/20,09:10,0.538,0.816,0.497,1.012,0.720,0.326,0.579,0.535,���k��,2.9,��
2023/09/20,09:20,0.537,0.818,0.496,1.009,0.720,0.326,0.577,0.533,��,3.2,��
2023/09/20,09:30,0.538,0.817,0.497,1.011,0.719,0.324,0.577,0.534,��,4.9,��
2023/09/20,09:40,0.538,0.817,0.498,1.009,0.720,0.325,0.578,0.534,���k��,4.4,��
2023/09/20,09:50,0.538,0.816,0.498,1.009,0.719,0.324,0.580,0.534,��,2.2,��
2023/09/20,10:00,0.539,0.818,0.498,1.011,0.713,0.325,0.577,0.533,��,3.1,��
2023/09/20,10:10,0.540,0.818,0.498,1.012,0.706,0.326,0.577,0.534,���k��,4.2,��
2023/09/20,10:20,0.538,0.817,0.498,1.011,0.716,0.325,0.578,0.534,���k��,4.1,��
2023/09/20,10:30,0.539,0.818,0.498,1.012,0.713,0.325,0.577,0.534,���k��,5.0,��
2023/09/20,10:40,0.538,0.818,0.499,1.012,0.717,0.324,0.578,0.533,��,4.1,��
2023/09/20,10:50,0.537,0.819,0.497,1.010,0.718,0.325,0.577,0.533,���k��,3.1,��
2023/09/20,11:00,0.539,0.820,0.499,1.013,0.718,0.326,0.578,0.536,���k��,2.3,�L
2023/09/20,11:10,0.541,0.819,0.499,1.012,0.716,0.324,0.580,0.532,�k�k��,1.4,�L
2023/09/20,11:20,0.542,0.820,0.499,1.011,0.713,0.324,0.578,0.534,��,2.3,�L
2023/09/20,11:30,0.541,0.820,0.499,1.013,0.715,0.324,0.580,0.535,��,3.3,�L
2023/09/20,11:40,0.539,0.819,0.499,1.015,0.712,0.323,0.579,0.534,���쐼,2.8,�L
2023/09/20,11:50,0.542,0.819,0.501,1.017,0.723,0.327,0.578,0.534,���쐼,1.7,�L
2023/09/20,12:00,0.541,0.820,0.500,1.016,0.724,0.327,0.579,0.533,��,3.6,��
2023/09/20,12:10,0.542,0.819,0.501,1.015,0.723,0.325,0.576,0.535,��,3.2,��
2023/09/20,12:20,0.540,0.818,0.499,1.014,0.722,0.325,0.578,0.535,��,1.5,��
2023/09/20,12:30,0.539,0.819,0.498,1.014,0.723,0.326,0.577,0.535,�k�k��,0.8,��
2023/09/20,12:40,0.539,0.817,0.499,1.012,0.723,0.325,0.576,0.534,�k��,1.2,��
2023/09/20,12:50,0.536,0.816,0.500,1.014,0.724,0.324,0.576,0.534,�k��,0.6,��
2023/09/20,13:00,0.537,0.817,0.497,1.014,0.723,0.326,0.577,0.534,�쐼,0.8,��
2023/09/20,13:10,0.537,0.818,0.498,1.014,0.722,0.325,0.577,0.534,-,CALM,��
2023/09/20,13:20,0.538,0.815,0.498,1.012,0.722,0.325,0.576,0.536,���k��,1.1,��
2023/09/20,13:30,0.537,0.819,0.496,1.014,0.722,0.325,0.577,0.535,��,2.0,��
2023/09/20,13:40,0.537,0.820,0.496,1.014,0.723,0.326,0.577,0.535,��,1.7,��
2023/09/20,13:50,0.536,0.817,0.498,1.011,0.717,0.324,0.577,0.534,-,CALM,��
2023/09/20,14:00,0.537,0.818,0.497,1.015,0.720,0.325,0.577,0.534,�k��,0.6,��
2023/09/20,14:10,0.538,0.817,0.497,1.011,0.720,0.324,0.577,0.535,��,0.6,��
2023/09/20,14:20,0.537,0.818,0.499,1.012,0.719,0.326,0.576,0.535,��,1.5,��
2023/09/20,14:30,0.538,0.818,0.499,1.013,0.719,0.325,0.577,0.535,��쐼,1.5,��
2023/09/20,14:40,0.539,0.818,0.499,1.012,0.722,0.325,0.577,0.535,��쐼,2.2,��
2023/09/20,14:50,0.539,0.817,0.499,1.014,0.714,0.325,0.578,0.535,��쐼,3.0,��
2023/09/20,15:00,0.539,0.819,0.498,1.012,0.715,0.324,0.578,0.535,��쐼,4.0,��
2023/09/20,15:10,0.538,0.817,0.498,1.013,0.722,0.325,0.577,0.536,��쐼,3.7,�L
2023/09/20,15:20,0.538,0.818,0.498,1.015,0.723,0.324,0.577,0.535,�쐼,3.3,��
2023/09/20,15:30,0.539,0.819,0.497,1.013,0.721,0.325,0.578,0.534,��쐼,2.5,��
2023/09/20,15:40,0.537,0.819,0.498,1.013,0.722,0.325,0.579,0.534,��,1.9,��
2023/09/20,15:50,0.537,0.818,0.498,1.012,0.722,0.325,0.578,0.536,��,2.0,��
2023/09/20,16:00,0.536,0.818,0.498,1.013,0.724,0.327,0.577,0.535,��,1.9,��
2023/09/20,16:10,0.537,0.817,0.497,1.015,0.723,0.326,0.577,0.536,��,1.5,��
2023/09/20,16:20,0.538,0.819,0.498,1.013,0.724,0.326,0.578,0.536,��,1.2,��
2023/09/20,16:30,0.536,0.816,0.498,1.014,0.723,0.325,0.578,0.537,���쐼,0.9,��
2023/09/20,16:40,0.539,0.817,0.497,1.013,0.722,0.325,0.578,0.534,��,2.3,��
2023/09/20,16:50,0.539,0.817,0.498,1.014,0.725,0.325,0.577,0.534,���k��,2.6,��
2023/09/20,17:00,0.539,0.817,0.498,1.012,0.724,0.325,0.577,0.535,���k��,3.2,��
2023/09/20,17:10,0.536,0.817,0.497,1.012,0.723,0.325,0.578,0.535,���k��,3.8,��
2023/09/20,17:20,0.537,0.818,0.497,1.015,0.722,0.325,0.578,0.534,���k��,3.6,��
2023/09/20,17:30,0.537,0.815,0.498,1.013,0.723,0.324,0.576,0.536,���k��,3.5,��
2023/09/20,17:40,0.540,0.817,0.497,1.012,0.722,0.327,0.577,0.537,���k��,4.4,��
2023/09/20,17:50,0.540,0.817,0.497,1.014,0.721,0.326,0.579,0.535,�k��,5.0,��
2023/09/20,18:00,0.538,0.819,0.498,1.013,0.723,0.324,0.577,0.535,���k��,4.8,��
2023/09/20,18:10,0.537,0.819,0.498,1.015,0.723,0.325,0.578,0.536,���k��,5.3,��
2023/09/20,18:20,0.538,0.820,0.497,1.014,0.723,0.325,0.578,0.536,���k��,5.3,��
2023/09/20,18:30,0.540,0.817,0.498,1.013,0.722,0.325,0.576,0.537,�k��,0.8,��
2023/09/20,18:40,0.539,0.819,0.499,1.013,0.723,0.324,0.577,0.536,��,1.4,��
2023/09/20,18:50,0.539,0.817,0.497,1.014,0.721,0.324,0.576,0.535,���k��,2.5,��
2023/09/20,19:00,0.539,0.818,0.497,1.014,0.723,0.326,0.578,0.535,�k��,3.0,��
2023/09/20,19:10,0.537,0.819,0.497,1.013,0.723,0.324,0.576,0.536,�k��,3.2,��
2023/09/20,19:20,0.539,0.819,0.499,1.013,0.722,0.325,0.576,0.536,�k��,2.9,��
2023/09/20,19:30,0.538,0.817,0.498,1.013,0.725,0.325,0.577,0.535,�k��,2.5,��
2023/09/20,19:40,0.539,0.817,0.498,1.014,0.722,0.325,0.576,0.535,�k��,2.5,��
2023/09/20,19:50,0.538,0.818,0.498,1.014,0.723,0.324,0.577,0.535,���k��,2.0,��
2023/09/20,20:00,0.539,0.818,0.498,1.013,0.725,0.325,0.578,0.535,���k��,1.7,��
2023/09/20,20:10,0.539,0.816,0.497,1.014,0.723,0.324,0.578,0.535,���쐼,2.0,��
2023/09/20,20:20,0.537,0.819,0.497,1.016,0.723,0.325,0.577,0.535,���쐼,2.2,��
2023/09/20,20:30,0.537,0.818,0.497,1.013,0.723,0.325,0.579,0.534,���쐼,2.6,��
2023/09/20,20:40,0.539,0.817,0.497,1.016,0.721,0.324,0.577,0.535,���쐼,2.8,��
2023/09/20,20:50,0.539,0.818,0.497,1.016,0.723,0.325,0.578,0.534,���쐼,1.5,��
2023/09/20,21:00,0.538,0.819,0.497,1.015,0.722,0.324,0.577,0.535,��,1.5,��
2023/09/20,21:10,0.538,0.817,0.497,1.015,0.724,0.325,0.578,0.535,���쐼,1.5,��
2023/09/20,21:20,0.538,0.816,0.499,1.016,0.723,0.325,0.577,0.534,���k��,2.6,��
2023/09/20,21:30,0.538,0.818,0.498,1.014,0.722,0.324,0.577,0.536,�k��,3.9,��
2023/09/20,21:40,0.537,0.818,0.499,1.013,0.724,0.324,0.578,0.536,�k��,4.8,��
2023/09/20,21:50,0.538,0.819,0.498,1.015,0.724,0.325,0.577,0.536,�k��,4.4,��
2023/09/20,22:00,0.538,0.819,0.496,1.015,0.725,0.324,0.577,0.536,�k��,3.4,��
2023/09/20,22:10,0.537,0.816,0.499,1.013,0.724,0.325,0.577,0.536,�k��,2.2,��
2023/09/20,22:20,0.539,0.818,0.499,1.015,0.722,0.324,0.578,0.536,���쐼,1.9,��
2023/09/20,22:30,0.539,0.818,0.499,1.014,0.723,0.324,0.578,0.536,�쐼,3.5,��
2023/09/20,22:40,0.538,0.819,0.497,1.015,0.723,0.324,0.578,0.536,��쐼,3.2,��
2023/09/20,22:50,0.538,0.819,0.499,1.014,0.723,0.325,0.578,0.536,��쐼,4.3,�L
2023/09/20,23:00,0.538,0.819,0.497,1.015,0.723,0.325,0.577,0.536,��쐼,4.9,��
2023/09/20,23:10,0.538,0.820,0.499,1.015,0.721,0.324,0.578,0.536,��쐼,5.5,��
2023/09/20,23:20,0.538,0.820,0.499,1.017,0.722,0.325,0.577,0.535,��쐼,5.0,��
2023/09/20,23:30,0.538,0.819,0.497,1.015,0.722,0.325,0.579,0.537,��쐼,4.2,��
2023/09/20,23:40,0.536,0.819,0.499,1.016,0.724,0.323,0.577,0.537,��쐼,2.9,��
2023/09/20,23:50,0.536,0.819,0.499,1.013,0.722,0.324,0.577,0.535,�쐼,2.0,��
